Year,Month,Day,Hour,Minute,Value (Times are PST for temperature in C)
2019,03,31,00,00,5.30
2019,03,31,00,01,5.30
2019,03,31,00,02,5.30
2019,03,31,00,03,5.30
2019,03,31,00,04,5.30
2019,03,31,00,05,5.20
2019,03,31,00,06,5.20
2019,03,31,00,07,5.20
2019,03,31,00,08,5.20
2019,03,31,00,09,5.20
2019,03,31,00,10,5.20
2019,03,31,00,11,5.20
2019,03,31,00,12,5.20
2019,03,31,00,13,5.20
2019,03,31,00,14,5.20
2019,03,31,00,15,5.10
2019,03,31,00,16,5.10
2019,03,31,00,17,5.10
2019,03,31,00,18,5.10
2019,03,31,00,19,5.00
2019,03,31,00,20,5.00
2019,03,31,00,21,5.00
2019,03,31,00,22,4.90
2019,03,31,00,23,4.90
2019,03,31,00,24,4.90
2019,03,31,00,25,4.90
2019,03,31,00,26,4.80
2019,03,31,00,27,4.80
2019,03,31,00,28,4.80
2019,03,31,00,29,4.80
2019,03,31,00,30,4.80
2019,03,31,00,31,4.80
2019,03,31,00,32,4.80
2019,03,31,00,33,4.80
2019,03,31,00,34,4.80
2019,03,31,00,35,4.80
2019,03,31,00,36,4.80
2019,03,31,00,37,4.80
2019,03,31,00,38,4.80
2019,03,31,00,39,4.80
2019,03,31,00,40,4.80
2019,03,31,00,41,4.80
2019,03,31,00,42,4.80
2019,03,31,00,43,4.80
2019,03,31,00,44,4.80
2019,03,31,00,45,4.90
2019,03,31,00,46,4.90
2019,03,31,00,47,4.90
2019,03,31,00,48,4.90
2019,03,31,00,49,4.90
2019,03,31,00,50,4.90
2019,03,31,00,51,4.90
2019,03,31,00,52,4.90
2019,03,31,00,53,4.90
2019,03,31,00,54,4.90
2019,03,31,00,55,4.90
2019,03,31,00,56,4.90
2019,03,31,00,57,4.90
2019,03,31,00,58,4.90
2019,03,31,00,59,4.90
2019,03,31,01,00,4.90
2019,03,31,01,01,4.90
2019,03,31,01,02,5.00
2019,03,31,01,03,5.00
2019,03,31,01,04,5.10
2019,03,31,01,05,5.10
2019,03,31,01,06,5.00
2019,03,31,01,07,5.00
2019,03,31,01,08,5.00
2019,03,31,01,09,5.00
2019,03,31,01,10,4.90
2019,03,31,01,11,4.90
2019,03,31,01,12,4.90
2019,03,31,01,13,4.80
2019,03,31,01,14,4.80
2019,03,31,01,15,4.80
2019,03,31,01,16,4.80
2019,03,31,01,17,4.70
2019,03,31,01,18,4.70
2019,03,31,01,19,4.70
2019,03,31,01,20,4.60
2019,03,31,01,21,4.60
2019,03,31,01,22,4.50
2019,03,31,01,23,4.50
2019,03,31,01,24,4.50
2019,03,31,01,25,4.50
2019,03,31,01,26,4.50
2019,03,31,01,27,4.50
2019,03,31,01,28,4.50
2019,03,31,01,29,4.50
2019,03,31,01,30,4.50
2019,03,31,01,31,4.50
2019,03,31,01,32,4.50
2019,03,31,01,33,4.50
2019,03,31,01,34,4.60
2019,03,31,01,35,4.60
2019,03,31,01,36,4.60
2019,03,31,01,37,4.60
2019,03,31,01,38,4.60
2019,03,31,01,39,4.60
2019,03,31,01,40,4.60
2019,03,31,01,41,4.60
2019,03,31,01,42,4.60
2019,03,31,01,43,4.60
2019,03,31,01,44,4.50
2019,03,31,01,45,4.50
2019,03,31,01,46,4.50
2019,03,31,01,47,4.50
2019,03,31,01,48,4.50
2019,03,31,01,49,4.40
2019,03,31,01,50,4.40
2019,03,31,01,51,4.40
2019,03,31,01,52,4.40
2019,03,31,01,53,4.40
2019,03,31,01,54,4.40
2019,03,31,01,55,4.40
2019,03,31,01,56,4.40
2019,03,31,01,57,4.40
2019,03,31,01,58,4.40
2019,03,31,01,59,4.40
2019,03,31,02,00,4.40
2019,03,31,02,01,4.40
2019,03,31,02,02,4.40
2019,03,31,02,03,4.30
2019,03,31,02,04,4.30
2019,03,31,02,05,4.30
2019,03,31,02,06,4.40
2019,03,31,02,07,4.40
2019,03,31,02,08,4.40
2019,03,31,02,09,4.40
2019,03,31,02,10,4.40
2019,03,31,02,11,4.30
2019,03,31,02,12,4.30
2019,03,31,02,13,4.30
2019,03,31,02,14,4.30
2019,03,31,02,15,4.20
2019,03,31,02,16,4.20
2019,03,31,02,17,4.20
2019,03,31,02,18,4.20
2019,03,31,02,19,4.20
2019,03,31,02,20,4.20
2019,03,31,02,21,4.20
2019,03,31,02,22,4.10
2019,03,31,02,23,4.10
2019,03,31,02,24,4.00
2019,03,31,02,25,4.00
2019,03,31,02,26,4.00
2019,03,31,02,27,3.90
2019,03,31,02,28,3.90
2019,03,31,02,29,3.90
2019,03,31,02,30,3.90
2019,03,31,02,31,4.00
2019,03,31,02,32,4.00
2019,03,31,02,33,4.00
2019,03,31,02,34,3.90
2019,03,31,02,35,3.90
2019,03,31,02,36,3.90
2019,03,31,02,37,3.90
2019,03,31,02,38,3.90
2019,03,31,02,39,3.90
2019,03,31,02,40,3.90
2019,03,31,02,41,3.90
2019,03,31,02,42,3.90
2019,03,31,02,43,3.90
2019,03,31,02,44,3.80
2019,03,31,02,45,3.80
2019,03,31,02,46,3.80
2019,03,31,02,47,3.80
2019,03,31,02,48,3.70
2019,03,31,02,49,3.70
2019,03,31,02,50,3.70
2019,03,31,02,51,3.70
2019,03,31,02,52,3.80
2019,03,31,02,53,3.80
2019,03,31,02,54,3.80
2019,03,31,02,55,3.80
2019,03,31,02,56,3.80
2019,03,31,02,57,3.80
2019,03,31,02,58,3.80
2019,03,31,02,59,3.80
2019,03,31,03,00,3.80
2019,03,31,03,01,3.80
2019,03,31,03,02,3.80
2019,03,31,03,03,3.70
2019,03,31,03,04,3.70
2019,03,31,03,05,3.70
2019,03,31,03,06,3.70
2019,03,31,03,07,3.70
2019,03,31,03,08,3.70
2019,03,31,03,09,3.70
2019,03,31,03,10,3.70
2019,03,31,03,11,3.70
2019,03,31,03,12,3.70
2019,03,31,03,13,3.70
2019,03,31,03,14,3.70
2019,03,31,03,15,3.70
2019,03,31,03,16,3.80
2019,03,31,03,17,3.80
2019,03,31,03,18,3.80
2019,03,31,03,19,3.90
2019,03,31,03,20,3.90
2019,03,31,03,21,3.90
2019,03,31,03,22,3.90
2019,03,31,03,23,3.80
2019,03,31,03,24,3.80
2019,03,31,03,25,3.80
2019,03,31,03,26,3.70
2019,03,31,03,27,3.70
2019,03,31,03,28,3.70
2019,03,31,03,29,3.60
2019,03,31,03,30,3.60
2019,03,31,03,31,3.50
2019,03,31,03,32,3.50
2019,03,31,03,33,3.40
2019,03,31,03,34,3.40
2019,03,31,03,35,3.40
2019,03,31,03,36,3.30
2019,03,31,03,37,3.30
2019,03,31,03,38,3.30
2019,03,31,03,39,3.30
2019,03,31,03,40,3.20
2019,03,31,03,41,3.30
2019,03,31,03,42,3.30
2019,03,31,03,43,3.30
2019,03,31,03,44,3.30
2019,03,31,03,45,3.30
2019,03,31,03,46,3.30
2019,03,31,03,47,3.40
2019,03,31,03,48,3.50
2019,03,31,03,49,3.50
2019,03,31,03,50,3.60
2019,03,31,03,51,3.60
2019,03,31,03,52,3.60
2019,03,31,03,53,3.50
2019,03,31,03,54,3.50
2019,03,31,03,55,3.50
2019,03,31,03,56,3.50
2019,03,31,03,57,3.40
2019,03,31,03,58,3.40
2019,03,31,03,59,3.30
2019,03,31,04,00,3.30
2019,03,31,04,01,3.30
2019,03,31,04,02,3.40
2019,03,31,04,03,3.40
2019,03,31,04,04,3.40
2019,03,31,04,05,3.50
2019,03,31,04,06,3.50
2019,03,31,04,07,3.50
2019,03,31,04,08,3.40
2019,03,31,04,09,3.40
2019,03,31,04,10,3.40
2019,03,31,04,11,3.40
2019,03,31,04,12,3.40
2019,03,31,04,13,3.40
2019,03,31,04,14,3.40
2019,03,31,04,15,3.30
2019,03,31,04,16,3.30
2019,03,31,04,17,3.30
2019,03,31,04,18,3.20
2019,03,31,04,19,3.30
2019,03,31,04,20,3.30
2019,03,31,04,21,3.30
2019,03,31,04,22,3.20
2019,03,31,04,23,3.20
2019,03,31,04,24,3.20
2019,03,31,04,25,3.20
2019,03,31,04,26,3.20
2019,03,31,04,27,3.20
2019,03,31,04,28,3.20
2019,03,31,04,29,3.30
2019,03,31,04,30,3.30
2019,03,31,04,31,3.30
2019,03,31,04,32,3.20
2019,03,31,04,33,3.20
2019,03,31,04,34,3.20
2019,03,31,04,35,3.20
2019,03,31,04,36,3.20
2019,03,31,04,37,3.20
2019,03,31,04,38,3.20
2019,03,31,04,39,3.20
2019,03,31,04,40,3.20
2019,03,31,04,41,3.20
2019,03,31,04,42,3.20
2019,03,31,04,43,3.30
2019,03,31,04,44,3.30
2019,03,31,04,45,3.20
2019,03,31,04,46,3.20
2019,03,31,04,47,3.20
2019,03,31,04,48,3.20
2019,03,31,04,49,3.20
2019,03,31,04,50,3.20
2019,03,31,04,51,3.20
2019,03,31,04,52,3.10
2019,03,31,04,53,3.10
2019,03,31,04,54,3.10
2019,03,31,04,55,3.10
2019,03,31,04,56,3.10
2019,03,31,04,57,3.10
2019,03,31,04,58,3.20
2019,03,31,04,59,3.10
2019,03,31,05,00,3.10
2019,03,31,05,01,3.10
2019,03,31,05,02,3.00
2019,03,31,05,03,3.00
2019,03,31,05,04,2.90
2019,03,31,05,05,2.90
2019,03,31,05,06,2.90
2019,03,31,05,07,2.80
2019,03,31,05,08,2.80
2019,03,31,05,09,2.90
2019,03,31,05,10,2.90
2019,03,31,05,11,2.90
2019,03,31,05,12,2.90
2019,03,31,05,13,2.90
2019,03,31,05,14,3.00
2019,03,31,05,15,3.00
2019,03,31,05,16,3.00
2019,03,31,05,17,3.00
2019,03,31,05,18,3.00
2019,03,31,05,19,3.00
2019,03,31,05,20,3.00
2019,03,31,05,21,2.90
2019,03,31,05,22,2.90
2019,03,31,05,23,2.90
2019,03,31,05,24,2.90
2019,03,31,05,25,2.90
2019,03,31,05,26,2.90
2019,03,31,05,27,3.00
2019,03,31,05,28,3.00
2019,03,31,05,29,3.10
2019,03,31,05,30,3.10
2019,03,31,05,31,3.20
2019,03,31,05,32,3.20
2019,03,31,05,33,3.20
2019,03,31,05,34,3.20
2019,03,31,05,35,3.10
2019,03,31,05,36,3.10
2019,03,31,05,37,3.10
2019,03,31,05,38,3.00
2019,03,31,05,39,3.00
2019,03,31,05,40,2.90
2019,03,31,05,41,2.80
2019,03,31,05,42,2.80
2019,03,31,05,43,2.80
2019,03,31,05,44,2.80
2019,03,31,05,45,2.70
2019,03,31,05,46,2.70
2019,03,31,05,47,2.60
2019,03,31,05,48,2.50
2019,03,31,05,49,2.50
2019,03,31,05,50,2.40
2019,03,31,05,51,2.30
2019,03,31,05,52,2.30
2019,03,31,05,53,2.30
2019,03,31,05,54,2.30
2019,03,31,05,55,2.30
2019,03,31,05,56,2.30
2019,03,31,05,57,2.30
2019,03,31,05,58,2.30
2019,03,31,05,59,2.30
2019,03,31,06,00,2.30
2019,03,31,06,01,2.30
2019,03,31,06,02,2.30
2019,03,31,06,03,2.30
2019,03,31,06,04,2.30
2019,03,31,06,05,2.40
2019,03,31,06,06,2.50
2019,03,31,06,07,2.70
2019,03,31,06,08,2.80
2019,03,31,06,09,2.90
2019,03,31,06,10,3.00
2019,03,31,06,11,3.00
2019,03,31,06,12,3.00
2019,03,31,06,13,3.10
2019,03,31,06,14,3.10
2019,03,31,06,15,3.10
2019,03,31,06,16,3.00
2019,03,31,06,17,3.00
2019,03,31,06,18,3.00
2019,03,31,06,19,3.00
2019,03,31,06,20,3.00
2019,03,31,06,21,3.00
2019,03,31,06,22,2.90
2019,03,31,06,23,2.90
2019,03,31,06,24,2.90
2019,03,31,06,25,2.90
2019,03,31,06,26,2.90
2019,03,31,06,27,2.90
2019,03,31,06,28,2.90
2019,03,31,06,29,2.90
2019,03,31,06,30,2.90
2019,03,31,06,31,2.90
2019,03,31,06,32,2.90
2019,03,31,06,33,3.00
2019,03,31,06,34,2.90
2019,03,31,06,35,2.90
2019,03,31,06,36,2.90
2019,03,31,06,37,2.90
2019,03,31,06,38,2.90
2019,03,31,06,39,2.90
2019,03,31,06,40,2.80
2019,03,31,06,41,2.80
2019,03,31,06,42,2.70
2019,03,31,06,43,2.70
2019,03,31,06,44,2.70
2019,03,31,06,45,2.60
2019,03,31,06,46,2.60
2019,03,31,06,47,2.50
2019,03,31,06,48,2.50
2019,03,31,06,49,2.50
2019,03,31,06,50,2.40
2019,03,31,06,51,2.40
2019,03,31,06,52,2.40
2019,03,31,06,53,2.30
2019,03,31,06,54,2.30
2019,03,31,06,55,2.30
2019,03,31,06,56,2.30
2019,03,31,06,57,2.30
2019,03,31,06,58,2.30
2019,03,31,06,59,2.30
2019,03,31,07,00,2.40
2019,03,31,07,01,2.50
2019,03,31,07,02,2.60
2019,03,31,07,03,2.60
2019,03,31,07,04,2.70
2019,03,31,07,05,2.70
2019,03,31,07,06,2.80
2019,03,31,07,07,2.80
2019,03,31,07,08,2.80
2019,03,31,07,09,2.80
2019,03,31,07,10,2.80
2019,03,31,07,11,2.80
2019,03,31,07,12,2.90
2019,03,31,07,13,2.90
2019,03,31,07,14,2.90
2019,03,31,07,15,2.90
2019,03,31,07,16,2.90
2019,03,31,07,17,2.90
2019,03,31,07,18,2.80
2019,03,31,07,19,2.80
2019,03,31,07,20,2.80
2019,03,31,07,21,2.80
2019,03,31,07,22,2.70
2019,03,31,07,23,2.70
2019,03,31,07,24,2.70
2019,03,31,07,25,2.70
2019,03,31,07,26,2.70
2019,03,31,07,27,2.70
2019,03,31,07,28,2.70
2019,03,31,07,29,2.70
2019,03,31,07,30,2.70
2019,03,31,07,31,2.70
2019,03,31,07,32,2.80
2019,03,31,07,33,2.80
2019,03,31,07,34,2.80
2019,03,31,07,35,2.80
2019,03,31,07,36,2.90
2019,03,31,07,37,2.90
2019,03,31,07,38,2.90
2019,03,31,07,39,2.90
2019,03,31,07,40,2.90
2019,03,31,07,41,2.90
2019,03,31,07,42,2.90
2019,03,31,07,43,2.90
2019,03,31,07,44,2.90
2019,03,31,07,45,2.90
2019,03,31,07,46,3.00
2019,03,31,07,47,3.00
2019,03,31,07,48,3.00
2019,03,31,07,49,3.10
2019,03,31,07,50,3.10
2019,03,31,07,51,3.20
2019,03,31,07,52,3.20
2019,03,31,07,53,3.30
2019,03,31,07,54,3.30
2019,03,31,07,55,3.40
2019,03,31,07,56,3.50
2019,03,31,07,57,3.60
2019,03,31,07,58,3.60
2019,03,31,07,59,3.70
2019,03,31,08,00,3.70
2019,03,31,08,01,3.80
2019,03,31,08,02,3.80
2019,03,31,08,03,3.90
2019,03,31,08,04,4.00
2019,03,31,08,05,4.10
2019,03,31,08,06,4.20
2019,03,31,08,07,4.30
2019,03,31,08,08,4.40
2019,03,31,08,09,4.50
2019,03,31,08,10,4.60
2019,03,31,08,11,4.70
2019,03,31,08,12,4.80
2019,03,31,08,13,4.80
2019,03,31,08,14,4.80
2019,03,31,08,15,4.90
2019,03,31,08,16,4.90
2019,03,31,08,17,5.00
2019,03,31,08,18,5.00
2019,03,31,08,19,5.10
2019,03,31,08,20,5.10
2019,03,31,08,21,5.10
2019,03,31,08,22,5.20
2019,03,31,08,23,5.20
2019,03,31,08,24,5.20
2019,03,31,08,25,5.20
2019,03,31,08,26,5.30
2019,03,31,08,27,5.30
2019,03,31,08,28,5.40
2019,03,31,08,29,5.40
2019,03,31,08,30,5.50
2019,03,31,08,31,5.60
2019,03,31,08,32,5.60
2019,03,31,08,33,5.70
2019,03,31,08,34,5.70
2019,03,31,08,35,5.80
2019,03,31,08,36,5.80
2019,03,31,08,37,5.90
2019,03,31,08,38,5.90
2019,03,31,08,39,5.90
2019,03,31,08,40,6.00
2019,03,31,08,41,6.10
2019,03,31,08,42,6.10
2019,03,31,08,43,6.20
2019,03,31,08,44,6.30
2019,03,31,08,45,6.30
2019,03,31,08,46,6.30
2019,03,31,08,47,6.40
2019,03,31,08,48,6.50
2019,03,31,08,49,6.50
2019,03,31,08,50,6.50
2019,03,31,08,51,6.60
2019,03,31,08,52,6.70
2019,03,31,08,53,6.70
2019,03,31,08,54,6.80
2019,03,31,08,55,6.80
2019,03,31,08,56,6.90
2019,03,31,08,57,6.90
2019,03,31,08,58,6.90
2019,03,31,08,59,7.00
2019,03,31,09,00,7.00
2019,03,31,09,01,7.00
2019,03,31,09,02,7.00
2019,03,31,09,03,7.00
2019,03,31,09,04,7.00
2019,03,31,09,05,7.10
2019,03,31,09,06,7.10
2019,03,31,09,07,7.20
2019,03,31,09,08,7.30
2019,03,31,09,09,7.30
2019,03,31,09,10,7.40
2019,03,31,09,11,7.50
2019,03,31,09,12,7.60
2019,03,31,09,13,7.70
2019,03,31,09,14,7.80
2019,03,31,09,15,7.80
2019,03,31,09,16,7.90
2019,03,31,09,17,8.00
2019,03,31,09,18,8.10
2019,03,31,09,19,8.30
2019,03,31,09,20,8.50
2019,03,31,09,21,8.60
2019,03,31,09,22,8.80
2019,03,31,09,23,8.90
2019,03,31,09,24,9.00
2019,03,31,09,25,9.00
2019,03,31,09,26,9.10
2019,03,31,09,27,9.20
2019,03,31,09,28,9.30
2019,03,31,09,29,9.40
2019,03,31,09,30,9.50
2019,03,31,09,31,9.70
2019,03,31,09,32,9.80
2019,03,31,09,33,9.90
2019,03,31,09,34,10.10
2019,03,31,09,35,10.20
2019,03,31,09,36,10.30
2019,03,31,09,37,10.40
2019,03,31,09,38,10.50
2019,03,31,09,39,10.50
2019,03,31,09,40,10.60
2019,03,31,09,41,10.70
2019,03,31,09,42,10.70
2019,03,31,09,43,10.80
2019,03,31,09,44,10.90
2019,03,31,09,45,11.00
2019,03,31,09,46,11.00
2019,03,31,09,47,11.10
2019,03,31,09,48,11.00
2019,03,31,09,49,11.00
2019,03,31,09,50,11.00
2019,03,31,09,51,11.00
2019,03,31,09,52,11.00
2019,03,31,09,53,11.00
2019,03,31,09,54,11.10
2019,03,31,09,55,11.10
2019,03,31,09,56,11.00
2019,03,31,09,57,11.00
2019,03,31,09,58,11.00
2019,03,31,09,59,11.10
2019,03,31,10,00,11.10
2019,03,31,10,01,11.10
2019,03,31,10,02,11.10
2019,03,31,10,03,11.20
2019,03,31,10,04,11.20
2019,03,31,10,05,11.20
2019,03,31,10,06,11.10
2019,03,31,10,07,11.10
2019,03,31,10,08,11.10
2019,03,31,10,09,11.20
2019,03,31,10,10,11.30
2019,03,31,10,11,11.40
2019,03,31,10,12,11.40
2019,03,31,10,13,11.30
2019,03,31,10,14,11.30
2019,03,31,10,15,11.30
2019,03,31,10,16,11.30
2019,03,31,10,17,11.30
2019,03,31,10,18,11.40
2019,03,31,10,19,11.50
2019,03,31,10,20,11.60
2019,03,31,10,21,11.60
2019,03,31,10,22,11.50
2019,03,31,10,23,11.60
2019,03,31,10,24,11.60
2019,03,31,10,25,11.70
2019,03,31,10,26,11.70
2019,03,31,10,27,11.80
2019,03,31,10,28,11.80
2019,03,31,10,29,11.80
2019,03,31,10,30,11.70
2019,03,31,10,31,11.70
2019,03,31,10,32,11.60
2019,03,31,10,33,11.60
2019,03,31,10,34,11.60
2019,03,31,10,35,11.60
2019,03,31,10,36,11.60
2019,03,31,10,37,11.70
2019,03,31,10,38,11.70
2019,03,31,10,39,11.70
2019,03,31,10,40,11.70
2019,03,31,10,41,11.70
2019,03,31,10,42,11.60
2019,03,31,10,43,11.50
2019,03,31,10,44,11.50
2019,03,31,10,45,11.40
2019,03,31,10,46,11.40
2019,03,31,10,47,11.50
2019,03,31,10,48,11.60
2019,03,31,10,49,11.70
2019,03,31,10,50,11.90
2019,03,31,10,51,12.00
2019,03,31,10,52,12.10
2019,03,31,10,53,12.20
2019,03,31,10,54,12.20
2019,03,31,10,55,12.30
2019,03,31,10,56,12.30
2019,03,31,10,57,12.30
2019,03,31,10,58,12.30
2019,03,31,10,59,12.30
2019,03,31,11,00,12.30
2019,03,31,11,01,12.40
2019,03,31,11,02,12.50
2019,03,31,11,03,12.70
2019,03,31,11,04,12.80
2019,03,31,11,05,13.00
2019,03,31,11,06,13.10
2019,03,31,11,07,13.20
2019,03,31,11,08,13.10
2019,03,31,11,09,13.10
2019,03,31,11,10,13.10
2019,03,31,11,11,13.20
2019,03,31,11,12,13.30
2019,03,31,11,13,13.40
2019,03,31,11,14,13.40
2019,03,31,11,15,13.40
2019,03,31,11,16,13.50
2019,03,31,11,17,13.60
2019,03,31,11,18,13.70
2019,03,31,11,19,13.70
2019,03,31,11,20,13.80
2019,03,31,11,21,13.80
2019,03,31,11,22,13.80
2019,03,31,11,23,14.00
2019,03,31,11,24,14.10
2019,03,31,11,25,14.20
2019,03,31,11,26,14.40
2019,03,31,11,27,14.50
2019,03,31,11,28,14.40
2019,03,31,11,29,14.20
2019,03,31,11,30,14.00
2019,03,31,11,31,13.80
2019,03,31,11,32,13.70
2019,03,31,11,33,13.60
2019,03,31,11,34,13.40
2019,03,31,11,35,13.20
2019,03,31,11,36,13.10
2019,03,31,11,37,13.10
2019,03,31,11,38,13.00
2019,03,31,11,39,12.90
2019,03,31,11,40,12.80
2019,03,31,11,41,12.80
2019,03,31,11,42,12.70
2019,03,31,11,43,12.80
2019,03,31,11,44,12.90
2019,03,31,11,45,12.90
2019,03,31,11,46,12.90
2019,03,31,11,47,13.00
2019,03,31,11,48,13.10
2019,03,31,11,49,13.10
2019,03,31,11,50,13.20
2019,03,31,11,51,13.30
2019,03,31,11,52,13.40
2019,03,31,11,53,13.50
2019,03,31,11,54,13.60
2019,03,31,11,55,13.70
2019,03,31,11,56,13.90
2019,03,31,11,57,14.00
2019,03,31,11,58,14.00
2019,03,31,11,59,14.00
2019,03,31,12,00,14.00
2019,03,31,12,01,14.10
2019,03,31,12,02,14.10
2019,03,31,12,03,14.20
2019,03,31,12,04,14.20
2019,03,31,12,05,14.30
2019,03,31,12,06,14.40
2019,03,31,12,07,14.40
2019,03,31,12,08,14.50
2019,03,31,12,09,14.60
2019,03,31,12,10,14.70
2019,03,31,12,11,14.80
2019,03,31,12,12,14.80
2019,03,31,12,13,14.90
2019,03,31,12,14,14.90
2019,03,31,12,15,15.00
2019,03,31,12,16,15.10
2019,03,31,12,17,15.10
2019,03,31,12,18,15.00
2019,03,31,12,19,14.80
2019,03,31,12,20,14.60
2019,03,31,12,21,14.50
2019,03,31,12,22,14.50
2019,03,31,12,23,14.40
2019,03,31,12,24,14.40
2019,03,31,12,25,14.40
2019,03,31,12,26,14.40
2019,03,31,12,27,14.40
2019,03,31,12,28,14.30
2019,03,31,12,29,14.30
2019,03,31,12,30,14.30
2019,03,31,12,31,14.20
2019,03,31,12,32,14.20
2019,03,31,12,33,14.20
2019,03,31,12,34,14.10
2019,03,31,12,35,14.00
2019,03,31,12,36,13.90
2019,03,31,12,37,13.80
2019,03,31,12,38,13.60
2019,03,31,12,39,13.40
2019,03,31,12,40,13.40
2019,03,31,12,41,13.40
2019,03,31,12,42,13.50
2019,03,31,12,43,13.60
2019,03,31,12,44,13.70
2019,03,31,12,45,13.70
2019,03,31,12,46,13.80
2019,03,31,12,47,13.80
2019,03,31,12,48,13.80
2019,03,31,12,49,13.90
2019,03,31,12,50,13.90
2019,03,31,12,51,13.90
2019,03,31,12,52,13.90
2019,03,31,12,53,13.90
2019,03,31,12,54,14.00
2019,03,31,12,55,13.90
2019,03,31,12,56,13.90
2019,03,31,12,57,13.90
2019,03,31,12,58,13.90
2019,03,31,12,59,13.90
2019,03,31,13,00,14.00
2019,03,31,13,01,14.10
2019,03,31,13,02,14.10
2019,03,31,13,03,14.20
2019,03,31,13,04,14.20
2019,03,31,13,05,14.30
2019,03,31,13,06,14.30
2019,03,31,13,07,14.50
2019,03,31,13,08,14.50
2019,03,31,13,09,14.50
2019,03,31,13,10,14.40
2019,03,31,13,11,14.30
2019,03,31,13,12,14.20
2019,03,31,13,13,14.20
2019,03,31,13,14,14.20
2019,03,31,13,15,14.20
2019,03,31,13,16,14.20
2019,03,31,13,17,14.30
2019,03,31,13,18,14.30
2019,03,31,13,19,14.50
2019,03,31,13,20,14.60
2019,03,31,13,21,14.80
2019,03,31,13,22,14.90
2019,03,31,13,23,15.00
2019,03,31,13,24,15.00
2019,03,31,13,25,15.10
2019,03,31,13,26,15.30
2019,03,31,13,27,15.30
2019,03,31,13,28,15.20
2019,03,31,13,29,15.20
2019,03,31,13,30,15.00
2019,03,31,13,31,14.90
2019,03,31,13,32,14.80
2019,03,31,13,33,14.70
2019,03,31,13,34,14.60
2019,03,31,13,35,14.40
2019,03,31,13,36,14.30
2019,03,31,13,37,14.20
2019,03,31,13,38,14.20
2019,03,31,13,39,14.10
2019,03,31,13,40,14.10
2019,03,31,13,41,14.00
2019,03,31,13,42,13.90
2019,03,31,13,43,14.00
2019,03,31,13,44,14.00
2019,03,31,13,45,14.00
2019,03,31,13,46,14.10
2019,03,31,13,47,14.10
2019,03,31,13,48,14.10
2019,03,31,13,49,14.20
2019,03,31,13,50,14.30
2019,03,31,13,51,14.40
2019,03,31,13,52,14.50
2019,03,31,13,53,14.60
2019,03,31,13,54,14.80
2019,03,31,13,55,14.80
2019,03,31,13,56,15.00
2019,03,31,13,57,15.10
2019,03,31,13,58,15.20
2019,03,31,13,59,15.30
2019,03,31,14,00,15.30
2019,03,31,14,01,15.30
2019,03,31,14,02,15.30
2019,03,31,14,03,15.40
2019,03,31,14,04,15.40
2019,03,31,14,05,15.40
2019,03,31,14,06,15.30
2019,03,31,14,07,15.20
2019,03,31,14,08,15.20
2019,03,31,14,09,15.20
2019,03,31,14,10,15.20
2019,03,31,14,11,15.20
2019,03,31,14,12,15.20
2019,03,31,14,13,15.20
2019,03,31,14,14,15.20
2019,03,31,14,15,15.10
2019,03,31,14,16,15.00
2019,03,31,14,17,14.90
2019,03,31,14,18,14.70
2019,03,31,14,19,14.60
2019,03,31,14,20,14.50
2019,03,31,14,21,14.50
2019,03,31,14,22,14.60
2019,03,31,14,23,14.70
2019,03,31,14,24,14.70
2019,03,31,14,25,14.70
2019,03,31,14,26,14.60
2019,03,31,14,27,14.50
2019,03,31,14,28,14.50
2019,03,31,14,29,14.50
2019,03,31,14,30,14.60
2019,03,31,14,31,14.70
2019,03,31,14,32,14.80
2019,03,31,14,33,14.90
2019,03,31,14,34,14.90
2019,03,31,14,35,14.70
2019,03,31,14,36,14.60
2019,03,31,14,37,14.50
2019,03,31,14,38,14.40
2019,03,31,14,39,14.40
2019,03,31,14,40,14.30
2019,03,31,14,41,14.30
2019,03,31,14,42,14.30
2019,03,31,14,43,14.40
2019,03,31,14,44,14.40
2019,03,31,14,45,14.40
2019,03,31,14,46,14.40
2019,03,31,14,47,14.50
2019,03,31,14,48,14.60
2019,03,31,14,49,14.60
2019,03,31,14,50,14.60
2019,03,31,14,51,14.70
2019,03,31,14,52,14.60
2019,03,31,14,53,14.60
2019,03,31,14,54,14.50
2019,03,31,14,55,14.40
2019,03,31,14,56,14.30
2019,03,31,14,57,14.20
2019,03,31,14,58,14.20
2019,03,31,14,59,14.20
2019,03,31,15,00,14.20
2019,03,31,15,01,14.20
2019,03,31,15,02,14.20
2019,03,31,15,03,14.20
2019,03,31,15,04,14.20
2019,03,31,15,05,14.20
2019,03,31,15,06,14.40
2019,03,31,15,07,14.50
2019,03,31,15,08,14.60
2019,03,31,15,09,14.70
2019,03,31,15,10,14.80
2019,03,31,15,11,14.90
2019,03,31,15,12,15.00
2019,03,31,15,13,15.00
2019,03,31,15,14,15.00
2019,03,31,15,15,15.00
2019,03,31,15,16,14.90
2019,03,31,15,17,14.80
2019,03,31,15,18,14.90
2019,03,31,15,19,14.90
2019,03,31,15,20,15.00
2019,03,31,15,21,15.10
2019,03,31,15,22,15.10
2019,03,31,15,23,15.10
2019,03,31,15,24,15.00
2019,03,31,15,25,14.90
2019,03,31,15,26,14.80
2019,03,31,15,27,14.80
2019,03,31,15,28,14.70
2019,03,31,15,29,14.70
2019,03,31,15,30,14.70
2019,03,31,15,31,14.80
2019,03,31,15,32,14.90
2019,03,31,15,33,14.90
2019,03,31,15,34,15.00
2019,03,31,15,35,15.00
2019,03,31,15,36,15.00
2019,03,31,15,37,15.00
2019,03,31,15,38,15.10
2019,03,31,15,39,15.20
2019,03,31,15,40,15.20
2019,03,31,15,41,15.20
2019,03,31,15,42,15.30
2019,03,31,15,43,15.30
2019,03,31,15,44,15.30
2019,03,31,15,45,15.30
2019,03,31,15,46,15.40
2019,03,31,15,47,15.40
2019,03,31,15,48,15.40
2019,03,31,15,49,15.40
2019,03,31,15,50,15.40
2019,03,31,15,51,15.40
2019,03,31,15,52,15.30
2019,03,31,15,53,15.30
2019,03,31,15,54,15.30
2019,03,31,15,55,15.30
2019,03,31,15,56,15.30
2019,03,31,15,57,15.30
2019,03,31,15,58,15.40
2019,03,31,15,59,15.40
2019,03,31,16,00,15.40
2019,03,31,16,01,15.50
2019,03,31,16,02,15.50
2019,03,31,16,03,15.50
2019,03,31,16,04,15.60
2019,03,31,16,05,15.60
2019,03,31,16,06,15.70
2019,03,31,16,07,15.80
2019,03,31,16,08,15.90
2019,03,31,16,09,16.00
2019,03,31,16,10,16.10
2019,03,31,16,11,16.20
2019,03,31,16,12,16.30
2019,03,31,16,13,16.40
2019,03,31,16,14,16.50
2019,03,31,16,15,16.60
2019,03,31,16,16,16.70
2019,03,31,16,17,16.80
2019,03,31,16,18,16.90
2019,03,31,16,19,17.00
2019,03,31,16,20,17.10
2019,03,31,16,21,17.10
2019,03,31,16,22,17.20
2019,03,31,16,23,17.20
2019,03,31,16,24,17.30
2019,03,31,16,25,17.20
2019,03,31,16,26,17.20
2019,03,31,16,27,17.20
2019,03,31,16,28,17.20
2019,03,31,16,29,17.20
2019,03,31,16,30,17.20
2019,03,31,16,31,17.20
2019,03,31,16,32,17.20
2019,03,31,16,33,17.10
2019,03,31,16,34,17.10
2019,03,31,16,35,17.10
2019,03,31,16,36,17.20
2019,03,31,16,37,17.10
2019,03,31,16,38,17.10
2019,03,31,16,39,17.10
2019,03,31,16,40,17.10
2019,03,31,16,41,17.10
2019,03,31,16,42,17.00
2019,03,31,16,43,16.90
2019,03,31,16,44,16.90
2019,03,31,16,45,16.90
2019,03,31,16,46,16.90
2019,03,31,16,47,17.00
2019,03,31,16,48,17.10
2019,03,31,16,49,17.10
2019,03,31,16,50,17.20
2019,03,31,16,51,17.30
2019,03,31,16,52,17.40
2019,03,31,16,53,17.40
2019,03,31,16,54,17.50
2019,03,31,16,55,17.50
2019,03,31,16,56,17.40
2019,03,31,16,57,17.40
2019,03,31,16,58,17.30
2019,03,31,16,59,17.20
2019,03,31,17,00,17.10
2019,03,31,17,01,17.10
2019,03,31,17,02,17.00
2019,03,31,17,03,16.90
2019,03,31,17,04,16.90
2019,03,31,17,05,16.80
2019,03,31,17,06,16.80
2019,03,31,17,07,16.80
2019,03,31,17,08,16.80
2019,03,31,17,09,16.70
2019,03,31,17,10,16.70
2019,03,31,17,11,16.70
2019,03,31,17,12,16.70
2019,03,31,17,13,16.70
2019,03,31,17,14,16.70
2019,03,31,17,15,16.70
2019,03,31,17,16,16.60
2019,03,31,17,17,16.60
2019,03,31,17,18,16.50
2019,03,31,17,19,16.40
2019,03,31,17,20,16.40
2019,03,31,17,21,16.40
2019,03,31,17,22,16.40
2019,03,31,17,23,16.40
2019,03,31,17,24,16.50
2019,03,31,17,25,16.50
2019,03,31,17,26,16.60
2019,03,31,17,27,16.60
2019,03,31,17,28,16.60
2019,03,31,17,29,16.60
2019,03,31,17,30,16.60
2019,03,31,17,31,16.60
2019,03,31,17,32,16.60
2019,03,31,17,33,16.60
2019,03,31,17,34,16.60
2019,03,31,17,35,16.60
2019,03,31,17,36,16.60
2019,03,31,17,37,16.60
2019,03,31,17,38,16.70
2019,03,31,17,39,16.80
2019,03,31,17,40,16.90
2019,03,31,17,41,16.90
2019,03,31,17,42,17.00
2019,03,31,17,43,17.00
2019,03,31,17,44,16.90